User: anonymous   Login
Location: Peebles
(55.6412°N, 3.1714°W)
Time: 07:26:06
(UTC+00:00)
Language:

CSL-04 Deb - Orbit

View from above orbital plane
View from above orbital plane
View from above satellite
View from above satellite

Ground track
Ground track

The orbit data is extracted from the following two-line orbital elements,

1 26313U 99057GW  22333.55808837  .00001078  00000-0  28769-3 0  9993
2 26313  98.5982 357.6091 0085959 122.8305  28.1055 14.48346820193853
Epoch (UTC): 29 November 2022 13:23:38
Eccentricity: 0.0085959
inclination: 98.5982°
perigee height: 670 km
apogee height: 792 km
right ascension of ascending node: 357.6091°
argument of perigee: 122.8305°
revolutions per day: 14.48346820
mean anomaly at epoch: 28.1055°
orbit number at epoch: 19385

The dashed part of the orbit path shows where the satellite is in the earth's shadow,  

DLR